sat.trackr.live / text

‹ back to catalog

STARLINK-36374

NORAD 67417 · 2026-005P

PAYLOAD ACTIVE UNKNOWN

§ Identity

Operator
Country
US
Launch date
2026-01-12
Launch site
AFETR
Launch vehicle
Mass (kg)
RCS (m²)

Purposes: comms

External: N2YO · Heavens-Above · Gunter

§ Orbital elements

Epoch: 2026-05-24T18:55:24.055968Z

Period
94.27 min
Inclination
43.0013°
Eccentricity
0.0002563
Mean motion
15.27590926 rev/d
Perigee alt
481.3 km
Apogee alt
484.8 km
Semi-major
6,861.2 km
B*
3.7278e-4
RAAN
168.3230°
Arg perigee
277.6536°
Mean anomaly
82.4025°
Rev number
2,033

§ Raw data

STARLINK-363741 67417U 26005P   26144.78847287  .00010013  00000+0  37278-3 0  99902 67417  43.0013 168.3230 0002563 277.6536  82.4025 15.27590926 20338

JSON: /api/v1/satellites/67417 · /tle

For live sub-satellite position, see the globe view (requires WebGL).

§ Visibility from observer

Set your observer location to see the next 7 days of passes ≥ 10°. The values pass through the URL so the page stays shareable.

No JS? Fill the form by hand. The geolocation button needs JavaScript.